Weather observations for the past three days for
Eastsound, Orcas Island Airport
Imperial (Metric)
Date Time (pdt) Wind (mph) Vis. (mi.) Weather Sky Cond. Temperature (ºF) Relative Humidity Wind Chill (°F) Heat Index (°F) Pressure Precipitation (in)
Air Dwpt 6 hour altimeter (in) sea level (mb) 1 hr 3 hr 6 hr
Max. Min.
23 17:35 Calm 10.00 Fair CLR 68 50 53% 30.08 0.0
23 17:15 Calm 10.00 Fair CLR 68 50 53% 30.09 0.0
23 16:55 Calm 10.00 Fair CLR 66.2 50 56% 30.1 0.0
23 16:35 Calm 10.00 Fair CLR 66.2 50 56% 30.11 0.0
23 16:15 Calm 10.00 Fair CLR 66.2 50 56% 30.12 0.0
23 15:55 Calm 10.00 Fair CLR 66.2 51.8 60% 30.12 0.0
23 15:35 Calm 10.00 Fair CLR 66.2 51.8 60% 30.13 0.0
23 15:15 N 5 10.00 Fair CLR 66.2 51.8 60% 30.13 0.0
23 14:55 Calm 10.00 Fair CLR 64.4 51.8 64% 30.14 0.0
23 14:35 Calm 10.00 Fair CLR 66.2 51.8 60% 30.14 0.0
23 14:15 Calm 9.00 Fair CLR 66.2 51.8 60% 30.14 0.0
23 13:55 N 6 10.00 Fair CLR 64.4 51.8 64% 30.15 0.0
23 13:35 Calm 10.00 Fair CLR 66.2 51.8 60% 30.16 0.0
23 13:15 Calm 10.00 Fair CLR 66.2 53.6 64% 30.16 0.0
23 12:55 Calm 9.00 Fair CLR 64.4 51.8 64% 30.17 0.0
23 12:35 Calm 10.00 Fair CLR 64.4 51.8 64% 30.17 0.0
23 12:15 N 5 9.00 Fair CLR 64.4 51.8 64% 30.18 0.0
23 11:55 Vrbl 5 10.00 Fair CLR 62.6 51.8 68% 30.19 0.0
23 11:35 N 6 10.00 Fair CLR 64.4 51.8 64% 30.19 0.0
23 11:15 Vrbl 3 10.00 Fair CLR 62.6 51.8 68% 30.19 0.0
23 10:55 Calm 9.00 Fair CLR 62.6 51.8 68% 30.19 0.0
23 10:35 Calm 10.00 Fair CLR 62.6 51.8 68% 30.19 0.0
23 10:15 Vrbl 7 10.00 Fair CLR 62.6 51.8 68% 30.2 0.0
23 09:55 S 8 10.00 Fair CLR 60.8 51.8 72% 30.2 0.0
23 09:35 Calm 10.00 Fair CLR 59 50 72% 30.2 0.0
23 09:15 Calm 10.00 Fair CLR 60.8 51.8 72% 30.2 0.0
23 08:55 Calm 9.00 Fair CLR 60.8 50 68% 30.2 0.0
23 08:35 Vrbl 5 9.00 Fair CLR 60.8 51.8 72% 30.2 0.0
23 08:15 S 7 10.00 A Few Clouds FEW055 59 51.8 77% 30.19 0.0
23 07:55 S 8 9.00 Mostly Cloudy BKN055 59 51.8 77% 30.19 0.0
23 07:35 S 10 10.00 Overcast OVC050 57.2 51.8 82% 30.19 0.0
23 07:15 S 7 9.00 Overcast OVC050 57.2 51.8 82% 30.2 0.0
23 06:55 S 8 9.00 Overcast SCT035 OVC050 55.4 51.8 88% 30.2 0.0
23 06:35 Calm 9.00 Mostly Cloudy BKN034 BKN050 55.4 51.8 88% 30.19 0.0
23 06:15 S 8 9.00 A Few Clouds FEW036 55.4 51.8 88% 30.19 0.0
23 05:55 S 7 10.00 Fair CLR 55.4 51.8 88% 30.19 0.0
23 05:35 S 7 G 13 9.00 Mostly Cloudy SCT029 BKN042 55.4 51.8 88% 30.19 0.0
23 05:15 S 6 10.00 Overcast BKN029 OVC043 57.2 51.8 82% 30.19 0.0
23 04:55 S 10 10.00 Overcast OVC029 57.2 51.8 82% 30.19 0.0
23 04:35 S 9 10.00 Overcast OVC029 57.2 51.8 82% 30.19 0.0
23 04:15 S 6 10.00 Overcast BKN031 OVC043 57.2 51.8 82% 30.18 0.0
23 03:55 S 7 10.00 Overcast BKN032 BKN037 OVC046 57.2 51.8 82% 30.18 0.0
23 03:35 S 8 10.00 Overcast OVC033 57.2 51.8 82% 30.18 0.0
23 03:15 S 9 10.00 Overcast BKN033 BKN041 OVC049 57.2 51.8 82% 30.18 0.0
23 02:55 S 8 G 14 10.00 Overcast SCT036 BKN042 OVC048 57.2 51.8 82% 30.18 0.0
23 02:35 S 8 10.00 Overcast BKN036 OVC042 57.2 50 77% 30.17 0.0
23 02:15 S 8 10.00 Partly Cloudy SCT037 SCT045 55.4 50 82% 30.17 0.0
23 01:55 S 7 10.00 Fair CLR 55.4 50 82% 30.16 0.0
23 01:35 S 10 10.00 Fair CLR 57.2 50 77% 30.17 0.0
23 01:15 S 10 10.00 Fair CLR 57.2 50 77% 30.16 0.0
23 00:55 S 7 10.00 Fair CLR 57.2 50 77% 30.16 0.0
23 00:35 S 8 10.00 Fair CLR 57.2 50 77% 30.15 0.0
23 00:15 S 8 10.00 Fair CLR 57.2 50 77% 30.14 0.0
22 23:55 S 9 10.00 Fair CLR 57.2 50 77% 30.13 0.0
22 23:35 S 8 10.00 Fair CLR 57.2 50 77% 30.13 0.0
22 23:15 S 9 10.00 Fair CLR 59 50 72% 30.13 0.0
22 22:55 S 13 10.00 Fair CLR 59 50 72% 30.12 0.0
22 22:35 S 9 G 16 10.00 Fair CLR 59 50 72% 30.12 0.0
22 22:15 S 8 G 14 10.00 A Few Clouds FEW041 59 50 72% 30.11 0.0
22 21:55 S 10 10.00 Fair CLR 60.8 48.2 63% 30.11 0.0
22 21:35 S 9 10.00 Fair CLR 60.8 50 68% 30.1 0.0
22 21:15 S 7 10.00 Fair CLR 62.6 48.2 60% 30.09 0.0
22 20:55 S 8 G 14 10.00 Fair CLR 62.6 48.2 60% 30.09 0.0
22 20:35 S 9 10.00 Fair CLR 64.4 48.2 56% 30.09 0.0
22 20:15 S 9 G 16 10.00 Fair CLR 64.4 48.2 56% 30.08 0.0
22 19:55 S 12 10.00 Fair CLR 64.4 50 60% 30.08 0.0
22 19:35 S 8 10.00 Fair CLR 66.2 50 56% 30.08 0.0
22 19:15 S 12 10.00 A Few Clouds FEW060 68 50 53% 30.09 0.0
22 18:55 S 9 G 17 9.00 Fair CLR 68 50 53% 30.08 0.0
22 18:35 S 10 9.00 Fair CLR 68 51.8 56% 30.07 0.0
22 18:15 S 12 G 17 10.00 Fair CLR 69.8 51.8 53% 30.07 0.0
22 17:55 S 10 G 17 10.00 Fair CLR 69.8 51.8 53% 30.07 0.0
22 17:35 S 9 G 17 10.00 Fair CLR 69.8 53.6 57% 30.07 0.0
22 17:15 S 12 G 17 10.00 Fair CLR 69.8 53.6 57% 30.07 0.0
22 16:55 S 12 G 18 10.00 Fair CLR 69.8 53.6 57% 30.07 0.0
22 16:35 S 14 10.00 Fair CLR 68 55.4 64% 30.07 0.0
22 16:15 S 15 10.00 Fair CLR 69.8 53.6 57% 30.07 0.0
22 15:55 S 13 9.00 Fair CLR 69.8 53.6 57% 30.07 0.0
22 15:35 S 15 10.00 Fair CLR 68 55.4 64% 30.07 0.0
22 15:15 S 14 9.00 Fair CLR 68 55.4 64% 30.07 0.0
22 14:55 S 14 9.00 Partly Cloudy SCT043 68 55.4 64% 30.07 0.0
22 14:35 S 13 9.00 Overcast OVC043 68 55.4 64% 30.07 0.0
22 14:15 SE 12 10.00 Overcast OVC041 68 53.6 60% 30.08 0.0
22 13:55 SE 10 9.00 Overcast OVC041 68 53.6 60% 30.07 0.0
22 13:35 S 10 10.00 Overcast OVC037 66.2 53.6 64% 30.08 0.0
22 13:15 S 7 G 15 9.00 Overcast OVC034 64.4 55.4 73% 30.08 0.0
22 12:55 S 10 9.00 Overcast FEW027 OVC037 64.4 55.4 73% 30.08 0.0
22 12:35 S 12 9.00 Overcast FEW028 OVC038 62.6 55.4 77% 30.08 0.0
22 12:15 S 12 9.00 Overcast FEW024 BKN031 OVC039 62.6 55.4 77% 30.07 0.0
22 11:55 S 12 10.00 Overcast FEW024 BKN032 OVC039 62.6 55.4 77% 30.07 0.0
22 11:35 S 12 10.00 Overcast BKN024 OVC031 60.8 55.4 83% 30.07 0.0
22 11:15 S 12 10.00 Overcast OVC032 60.8 55.4 83% 30.07 0.0
22 10:55 S 10 9.00 Overcast SCT019 OVC032 60.8 55.4 83% 30.07 0.0
22 10:35 S 9 9.00 Overcast OVC018 60.8 55.4 83% 30.07 0.0
22 10:15 S 12 10.00 Overcast OVC017 60.8 55.4 83% 30.07 0.0
22 09:55 S 10 9.00 Overcast OVC016 59 55.4 88% 30.07 0.0
22 09:35 S 10 9.00 Overcast OVC016 59 55.4 88% 30.07 0.0
22 09:15 S 8 10.00 Overcast OVC017 59 55.4 88% 30.07 0.0
22 08:55 S 9 10.00 Overcast OVC018 59 55.4 88% 30.06 0.0
22 08:35 S 9 9.00 Overcast OVC019 59 55.4 88% 30.06 0.0
22 08:15 S 7 9.00 Mostly Cloudy BKN020 59 55.4 88% 30.06 0.0
22 07:55 S 9 9.00 A Few Clouds FEW020 59 55.4 88% 30.06 0.0
22 07:35 S 7 9.00 Fair CLR 57.2 55.4 94% 30.06 0.0
22 07:15 S 6 G 12 9.00 Fair CLR 57.2 55.4 94% 30.06 0.0
22 06:55 S 9 9.00 Fair CLR 57.2 53.6 88% 30.05 0.0
22 06:35 S 8 9.00 Fair CLR 57.2 53.6 88% 30.06 0.0
22 06:15 S 6 G 12 8.00 Fair CLR 55.4 53.6 94% 30.06 0.0
22 05:55 S 6 9.00 Fair CLR 55.4 53.6 94% 30.06 0.0
22 05:35 S 8 9.00 Fair CLR 55.4 53.6 94% 30.05 0.0
22 05:15 S 5 10.00 Fair CLR 55.4 53.6 94% 30.05 0.0
22 04:55 Calm 9.00 Fair CLR 55.4 53.6 94% 30.05 0.0
22 04:35 S 8 9.00 Fair CLR 55.4 53.6 94% 30.04 0.0
22 04:15 S 9 9.00 Fair CLR 57.2 55.4 94% 30.05 0.0
22 03:55 Calm 9.00 Fair CLR 57.2 53.6 88% 30.04 0.0
22 03:35 Calm 9.00 Fair CLR 57.2 53.6 88% 30.04 0.0
22 03:15 S 6 9.00 Fair CLR 57.2 53.6 88% 30.04 0.0
22 02:55 S 9 9.00 Fair CLR 57.2 55.4 94% 30.04 0.0
22 02:35 S 8 9.00 Fair CLR 57.2 55.4 94% 30.04 0.0
22 02:15 S 6 9.00 Fair CLR 57.2 55.4 94% 30.05 0.0
22 01:55 S 10 9.00 Fair CLR 57.2 55.4 94% 30.04 0.0
22 01:35 Calm 8.00 Fair CLR 57.2 55.4 94% 30.04 0.0
22 01:15 S 8 8.00 Fair CLR 57.2 55.4 94% 30.04 0.0
22 00:55 SE 7 G 13 9.00 Fair CLR 57.2 55.4 94% 30.04 0.0
22 00:35 S 5 8.00 A Few Clouds FEW070 57.2 55.4 94% 30.04 0.0
22 00:15 S 8 G 15 9.00 Fair CLR 57.2 55.4 94% 30.04 0.0
21 23:55 S 7 9.00 Fair CLR 57.2 55.4 94% 30.03 0.0
21 23:35 S 8 G 15 9.00 Fair CLR 59 55.4 88% 30.03 0.0
21 23:15 S 5 G 12 9.00 Fair CLR 59 55.4 88% 30.02 0.0
21 22:55 S 8 9.00 Fair CLR 60.8 55.4 83% 30.02 0.0
21 22:35 Vrbl 7 G 15 9.00 Fair CLR 60.8 55.4 83% 30.02 0.0
21 22:15 S 8 9.00 Fair CLR 60.8 55.4 83% 30.02 0.0
21 21:55 S 8 G 16 9.00 Fair CLR 60.8 55.4 83% 30.03 0.0
21 21:35 S 10 9.00 Fair CLR 62.6 55.4 77% 30.02 0.0
21 21:15 SE 9 9.00 Fair CLR 62.6 57.2 83% 30.02 0.0
21 20:55 SE 9 10.00 Fair CLR 64.4 57.2 78% 30.02 0.0
21 20:35 SE 8 9.00 Fair CLR 64.4 57.2 78% 30.01 0.0
21 20:15 S 8 9.00 Fair CLR 64.4 57.2 78% 30.01 0.0
21 19:55 SE 7 G 14 10.00 Fair CLR 66.2 57.2 73% 30.01 0.0
21 19:35 Vrbl 5 G 12 9.00 Fair CLR 68 57.2 69% 30.02 0.0
21 19:15 S 9 10.00 Fair CLR 69.8 57.2 64% 30.02 0.0
21 18:55 S 7 9.00 Fair CLR 68 59 73% 30.02 0.0
21 18:35 S 8 9.00 Fair CLR 69.8 59 69% 30.03 0.0
21 18:15 S 8 9.00 Fair CLR 69.8 59 69% 30.03 0.0
21 17:55 S 7 10.00 Fair CLR 69.8 59 69% 30.04 0.0
21 17:35 Calm 9.00 Fair CLR 71.6 59 65% 30.04 0.0
21 17:15 S 9 10.00 Fair CLR 73.4 59 61% 30.04 0.0
21 16:55 S 8 10.00 Fair CLR 71.6 59 65% 30.04 0.0
21 16:35 S 7 9.00 Fair CLR 71.6 59 65% 30.04 0.0
21 16:15 S 9 9.00 Fair CLR 71.6 59 65% 30.04 0.0
21 15:55 S 8 10.00 Fair CLR 73.4 59 61% 30.04 0.0
21 15:35 NW 7 9.00 Fair CLR 69.8 59 69% 30.05 0.0
21 14:35 Calm 9.00 Fair CLR 69.8 60.8 73% 30.04 0.0
21 13:55 Calm 10.00 Fair CLR 69.8 60.8 73% 30.04 0.0
21 13:35 Calm 9.00 Fair CLR 68 60.8 78% 30.05 0.0
21 13:15 Calm 7.00 Light Rain CLR 64.4 59 83% 30.06 0.0
21 12:55 S 6 G 14 9.00 Fair CLR 62.6 57.2 83% 30.07 0.0
21 12:35 Calm 9.00 Fair CLR 64.4 57.2 78% 30.07 0.0
21 12:15 Calm 9.00 Fair CLR 64.4 57.2 78% 30.07 0.0
21 11:55 Calm 9.00 Fair CLR 62.6 57.2 83% 30.08 0.0
21 11:35 S 7 9.00 Fair CLR 64.4 57.2 78% 30.08 0.0
21 11:15 Calm 9.00 Fair CLR 66.2 57.2 73% 30.06 0.0
21 10:35 Calm 9.00 Partly Cloudy SCT013 66.2 59 78% 30.06 0.0
21 10:15 Calm 9.00 Partly Cloudy SCT013 66.2 59 78% 30.05 0.0
21 09:55 Calm 9.00 Fair CLR 60.8 55.4 83% 30.05 0.0
21 09:35 Calm 9.00 Fair CLR 66.2 59 78% 30.04 0.0
21 09:15 Calm 9.00 Fair CLR 64.4 57.2 78% 30.04 0.0
21 08:55 Calm 9.00 Fair CLR 64.4 57.2 78% 30.04 0.0
21 08:35 S 6 9.00 Fair CLR 62.6 57.2 83% 30.04 0.0
21 08:15 Calm 10.00 Fair CLR 62.6 57.2 83% 30.04 0.0
21 07:55 S 7 9.00 Fair CLR 62.6 57.2 83% 30.04 0.0
21 07:35 Calm 9.00 Fair CLR 62.6 57.2 83% 30.04 0.0
21 07:15 Calm 8.00 Fair CLR 62.6 57.2 83% 30.05 0.0
21 06:55 Calm 9.00 Fair CLR 59 57.2 94% 30.04 0.0
21 06:35 S 7 8.00 Fair CLR 59 57.2 94% 30.06 0.0
21 06:15 Calm 9.00 Fair CLR 59 57.2 94% 30.06 0.0
21 05:55 Calm 9.00 Fair CLR 59 55.4 88% 30.05 0.0
21 05:35 Calm 9.00 Fair CLR 59 55.4 88% 30.04 0.0
21 05:15 Calm 9.00 A Few Clouds FEW055 59 55.4 88% 30.03 0.0
21 04:55 Calm 9.00 Partly Cloudy SCT055 59 55.4 88% 30.02 0.0
21 04:35 Calm 10.00 Mostly Cloudy BKN050 59 55.4 88% 30.01 0.0
21 04:15 S 7 10.00 Mostly Cloudy BKN050 59 55.4 88% 30.01 0.0
21 03:55 Calm 10.00 Overcast OVC050 57.2 53.6 88% 30 0.0
21 03:35 Calm 10.00 Overcast OVC050 57.2 53.6 88% 29.99 0.0
21 03:15 Calm 10.00 Mostly Cloudy BKN050 59 55.4 88% 30 0.0
21 02:55 Calm 10.00 Mostly Cloudy BKN050 60.8 55.4 83% 30 0.0
21 02:35 Calm 9.00 Mostly Cloudy BKN055 60.8 57.2 88% 30 0.0
21 02:15 SE 6 10.00 Mostly Cloudy BKN050 60.8 55.4 83% 30 0.0
21 01:55 Calm 10.00 Mostly Cloudy BKN050 62.6 55.4 77% 30 0.0
21 01:35 SE 6 10.00 Mostly Cloudy BKN050 60.8 55.4 83% 30 0.0
21 01:15 Calm 10.00 A Few Clouds FEW055 62.6 55.4 77% 30 0.0
21 00:55 Calm 10.00 A Few Clouds FEW055 62.6 55.4 77% 30 0.0
21 00:35 S 7 9.00 Partly Cloudy SCT055 62.6 57.2 83% 30.01 0.0
21 00:15 S 8 10.00 Overcast OVC055 62.6 57.2 83% 30 0.0
20 23:55 SE 8 10.00 Overcast OVC060 62.6 55.4 77% 30.01 0.0
20 23:35 SE 7 10.00 Overcast OVC060 62.6 55.4 77% 30.01 0.0
20 23:15 Calm 10.00 Mostly Cloudy BKN060 64.4 55.4 73% 30.01 0.0
20 22:55 SE 7 10.00 A Few Clouds FEW060 64.4 55.4 73% 30.01 0.0
20 22:35 SE 8 10.00 Fair CLR 64.4 55.4 73% 30.01 0.0
20 22:15 SE 5 10.00 Fair CLR 66.2 55.4 68% 30.01 0.0
20 21:55 Calm 10.00 Fair CLR 68 55.4 64% 30.01 0.0
20 21:35 Calm 10.00 Fair CLR 68 55.4 64% 30.01 0.0
20 21:15 S 5 10.00 Fair CLR 69.8 55.4 60% 30.01 0.0
20 20:55 S 3 9.00 Fair CLR 71.6 55.4 57% 30 0.0
20 20:35 S 3 10.00 Fair CLR 71.6 55.4 57% 30 0.0
20 20:15 S 6 9.00 Fair CLR 73.4 55.4 53% 30.01 0.0
20 19:55 S 5 10.00 Fair CLR 73.4 55.4 53% 30.01 0.0
20 19:35 Calm 10.00 Fair CLR 75.2 55.4 50% 78 30.01 0.0
20 19:15 Calm 10.00 Fair CLR 75.2 55.4 50% 78 30.02 0.0
20 18:55 S 3 10.00 Fair CLR 77 57.2 51% 79 30.02 0.0
20 18:35 Calm 10.00 Fair CLR 75.2 57.2 54% 78 30.02 0.0
20 18:15 Calm 10.00 Fair CLR 75.2 55.4 50% 78 30.03 0.0
20 17:55 Calm 10.00 Fair CLR 73.4 53.6 50% 30.03 0.0
Date Time (pdt) Wind (mph) Vis. (mi.) Weather Sky Cond. Air Dwpt Max. Min. Relative Humidity Wind Chill (°F) Heat Index (°F) altimeter (in) sea level (mb) 1 hr 3 hr 6 hr
6 hour
Temperature (ºF) Pressure Precipitation (in)